Back to catalog

COSMOS 1275 DEB

AlivePO
NORAD 12698·DEBRIS·🇷🇺 Russia

Launched Jun 4, 1981 from Plesetsk Cosmodrome

Loading…

Next Passes (next 24 hours)

TLE

FreshSource: Space-Track

Epoch: Sep 14, 2026, 05:05 UTC

1 12698U 81053AS  26257.21242977  .00002468  00000-0  84649-3 0  9993
2 12698  82.8997 337.3305 0011145 101.8062 258.4379 14.35814581304268

Track COSMOS 1275 DEB in real time with AllMySat

Download on the App Store